Content
SEND FEEDBACK

Daily
Averages
Monthly
Summary
United States of America

CHICAGO, ILLINOIS


Home > North America > United States > Illinois
Elevation: 205 meters     Latitude: 41 59N     Longitude: 087 54W

WEATHER
 
SELECT A DAY
Number of Records: 197,905;   Date Range: 7/8/95 - 10/23/14
 
SHARE

PRINT THIS DATA

[ ← Previous Day ]
WEATHER ALMANAC - 3 JANUARY, 2013
[ Next Day → ]
[ °F ]   °C
Weather ElementAverageHighLow
Temperature-3.3 °C-1.7 °C (8:52 am)-7.8 °C (11:52 pm)
Dewpoint-7.3 °C-5 °C (7:52 am)-11.1 °C (11:52 pm)
Humidity74.2 %81 % (4:52 am)64 % (11:52 am)
Barometer1022 hPa1025.7 hPa (8:52 pm)1018.6 hPa (4:09 am)
Wind Speed15.1 km/h24.1 km/h (11:52 am)
Wind Gust35.2 km/h (10:52 am)
Weather ElementAverage
Visibility12.9 km
Wind DirectionW (267 °)

Weather ElementTotal
Precipitation---
Heating Degree Days23.1 (Base 18.3)
Averaged from 30 records on 3 January, 2013
WEATHER CONDITIONS BREAKOUT
WIND DIRECTION BREAKOUT
WEATHER BY HOUR - 3 JANUARY, 2013
[ °F ]   °C
Local TimeTemperatureDewpointHumidityBarometerVisibilityWind DirectionWind SpeedGust SpeedPrecipitationEventsConditions
2:52 AM-3.9 °C-7.8 °C75 %1020 hPa14.5 kmSW (230°)14.8 km/hOvercast
3:02 AM-4 °C-8 °C74 %1019 hPa14.5 kmWSW (240°)11.1 km/hOvercast
3:14 AM-4 °C-7 °C80 %1019 hPa14.5 kmWSW (250°)14.8 km/hOvercast
3:52 AM-3.3 °C-6.7 °C78 %1019.6 hPa12.9 kmWest (260°)11.1 km/hOvercast
4:09 AM-3 °C-7 °C74 %1018.6 hPa11.3 kmWest (260°)11.1 km/hOvercast
4:19 AM-3 °C-7 °C74 %1018.6 hPa11.3 kmWest (270°)11.1 km/hOvercast
4:52 AM-3.3 °C-6.1 °C81 %1019.6 hPa9.7 kmWSW (250°)14.8 km/hHaze
5:16 AM-3 °C-6 °C80 %1019 hPa9.7 kmWest (260°)14.8 km/hHaze
5:52 AM-2.8 °C-5.6 °C81 %1020.7 hPa9.7 kmWSW (250°)16.7 km/h25.9 km/hHaze
6:52 AM-2.2 °C-5.6 °C78 %1021 hPa9.7 kmWest (260°)11.1 km/hHaze
7:52 AM-2.2 °C-5 °C81 %1021.7 hPa8 kmWest (270°)13 km/hHaze
8:52 AM-1.7 °C-5 °C78 %1022 hPa8 kmWest (280°)14.8 km/hHaze
9:07 AM-2 °C-6 °C74 %1021 hPa8 kmWNW (290°)14.8 km/hHaze
9:52 AM-1.7 °C-6.1 °C72 %1022.7 hPa11.3 kmWNW (290°)14.8 km/hOvercast
10:52 AM-1.7 °C-7.2 °C67 %1022.4 hPa16.1 kmWNW (300°)18.5 km/h35.2 km/hOvercast
11:52 AM-1.7 °C-7.8 °C64 %1022.4 hPa16.1 kmWNW (300°)24.1 km/h33.3 km/hOvercast
12:52 PM-1.7 °C-7.2 °C67 %1022.4 hPa16.1 kmWest (280°)16.7 km/h31.5 km/hOvercast
12:56 PM-2 °C-7 °C69 %1021.3 hPa16.1 kmWest (260°)18.5 km/h31.5 km/hOvercast
1:52 PM-1.7 °C-6.7 °C69 %1022.4 hPa14.5 kmWest (270°)16.7 km/h29.6 km/hMostly Cloudy
2:52 PM-2.2 °C-6.7 °C72 %1023 hPa12.9 kmWest (270°)14.8 km/hOvercast
3:52 PM-2.2 °C-7.2 °C69 %1024 hPa12.9 kmWest (270°)14.8 km/hOvercast
4:04 PM-2 °C-7 °C69 %1023 hPa12.9 kmWest (280°)16.7 km/hOvercast
4:52 PM-2.8 °C-7.2 °C72 %1024.4 hPa14.5 kmWest (270°)18.5 km/hOvercast
5:52 PM-3.3 °C-7.8 °C71 %1025.1 hPa16.1 kmWest (270°)20.4 km/h29.6 km/hOvercast
6:52 PM-3.9 °C-8.3 °C72 %1025.1 hPa14.5 kmWest (280°)16.7 km/hOvercast
7:52 PM-5 °C-8.9 °C74 %1025.4 hPa14.5 kmWest (270°)13 km/hClear
8:52 PM-6.1 °C-9.4 °C78 %1025.7 hPa14.5 kmWest (270°)18.5 km/hClear
9:52 PM-6.7 °C-10 °C78 %1025.4 hPa14.5 kmWSW (250°)13 km/hClear
10:52 PM-7.2 °C-10.6 °C77 %1025.4 hPa14.5 kmWSW (240°)11.1 km/hClear
11:52 PM-7.8 °C-11.1 °C78 %1025.4 hPa14.5 kmWest (270°)13 km/hClear
Hourly data recorded from KPWK, located 0 kilometers away from Chicago, Illinois







STORIES FROM OUR PARTNERS